Weather History for Coolangatta, QU

Change the Weather History Date:

Wednesday, July 24, 2013

  Actual Average (YBBN) Record (YBBN)
Temperature  
Mean Temperature 54 °F -  
Max Temperature 66 °F 67 °F 77 °F (2002)
Min Temperature 43 °F 47 °F 37 °F (1996)
Degree Days  
Heating Degree Days 10    
Growing Degree Days 4 (Base 50)    
Moisture  
Dew Point 44 °F    
Average Humidity 56    
Maximum Humidity 71    
Minimum Humidity 39    
Precipitation  
Precipitation 0.00 in - - ()
Sea Level Pressure  
Sea Level Pressure 30.17 in    
Wind  
Wind Speed 9 mph ()    
Max Wind Speed 18 mph    
Max Gust Speed 26 mph    
Visibility 6.2 miles    
Events      
Averages and records for this station are not official NWS values.
T = Trace of Precipitation, MM = Missing Value Source: Averaged Metar Reports

Daily Weather History Graph

Daily Weather History Graph

Search for Another Location

Airport:

Trip Planner

Search our weather history database for the weather conditions in past years. The results will help you decide how hot, cold, wet, or windy it might be!

Date:

Astronomy

Jul. 24, 2013 Rise Set
Actual Time 6:33 AM AEST 5:12 PM AEST
Civil Twilight 6:08 AM AEST 5:37 PM AEST
Nautical Twilight 5:39 AM AEST 6:05 PM AEST
Astronomical Twilight 5:11 AM AEST 6:33 PM AEST
Moon 6:57 PM AEST (7/24) 7:13 AM AEST (7/24)
Length of Visible Light 11h 29m
Length of Day
10h 38m
Full, 97% of the Moon is Illuminated
Jul 24
Full
Jul 30
Last Quarter
Aug 7
New
Aug 14
First Quarter
Aug 21
Full

Hourly Weather History & Observations

Time (AEST) Temp. Dew Point Humidity Pressure Visibility Wind Dir Wind Speed Gust Speed Precip Events Conditions
12:00 AM 51 °F 39 °F 53% 30.16 in - WSW 4.6 mph - -  
12:00 AM 50.0 °F 39.2 °F 66% 30.15 in 6.2 mi WSW 4.6 mph - N/A   Unknown
12:30 AM 48.2 °F 39.2 °F 71% 30.15 in 6.2 mi SW 8.1 mph - N/A   Unknown
1:00 AM 51.8 °F 39.2 °F 62% 30.15 in 6.2 mi SW 8.1 mph - N/A   Unknown
1:30 AM 51.8 °F 39.2 °F 62% 30.15 in 6.2 mi SSW 8.1 mph - N/A   Unknown
2:00 AM 50.0 °F 41.0 °F 71% 30.12 in 6.2 mi SW 6.9 mph - N/A   Unknown
2:30 AM 48.2 °F 39.2 °F 71% 30.12 in 6.2 mi WSW 4.6 mph - N/A   Unknown
3:00 AM 50 °F 40 °F 60% 30.15 in - SW 5.8 mph - -  
3:00 AM 50.0 °F 41.0 °F 71% 30.12 in 6.2 mi SW 5.8 mph - N/A   Unknown
3:30 AM 51.8 °F 39.2 °F 62% 30.12 in 6.2 mi SW 6.9 mph - N/A   Unknown
4:00 AM 50.0 °F 41.0 °F 71% 30.12 in 6.2 mi WSW 6.9 mph - N/A   Unknown
4:30 AM 51.8 °F 39.2 °F 62% 30.12 in 6.2 mi SSW 6.9 mph - N/A   Unknown
5:00 AM 51.8 °F 39.2 °F 62% 30.12 in 6.2 mi SW 6.9 mph - N/A   Unknown
5:30 AM 51.8 °F 37.4 °F 58% 30.15 in 6.2 mi SSW 6.9 mph - N/A   Unknown
6:00 AM 53 °F 38 °F 45% 30.17 in - SSW 9.2 mph - -  
6:00 AM 53.6 °F 37.4 °F 54% 30.15 in 6.2 mi SSW 9.2 mph - N/A   Unknown
6:30 AM 53.6 °F 37.4 °F 54% 30.15 in 6.2 mi SSW 11.5 mph - N/A   Unknown
7:00 AM 53.6 °F 37.4 °F 54% 30.18 in 6.2 mi SSW 10.4 mph - N/A   Unknown
7:30 AM 55.4 °F 39.2 °F 54% 30.18 in 6.2 mi SSW 10.4 mph - N/A   Unknown
8:00 AM 57.2 °F 39.2 °F 51% 30.18 in 6.2 mi SSW 11.5 mph - N/A   Unknown
8:30 AM 59.0 °F 39.2 °F 48% 30.18 in 6.2 mi SSW 10.4 mph - N/A   Unknown
9:00 AM 59 °F 41 °F 39% 30.20 in - SSW 12.7 mph - -  
9:00 AM 59.0 °F 41.0 °F 51% 30.18 in 6.2 mi SSW 12.7 mph - N/A   Unknown
9:30 AM 60.8 °F 41.0 °F 48% 30.18 in 6.2 mi South 11.5 mph - N/A   Unknown
10:00 AM 62.6 °F 42.8 °F 48% 30.18 in 6.2 mi South 15.0 mph - N/A   Unknown
10:30 AM 62.6 °F 44.6 °F 52% 30.18 in 6.2 mi South 18.4 mph - N/A   Unknown
11:00 AM 64.4 °F 44.6 °F 49% 30.18 in 6.2 mi SSW 15.0 mph 26.5 mph N/A   Unknown
11:30 AM 64.4 °F 44.6 °F 49% 30.18 in 6.2 mi South 13.8 mph - N/A   Unknown
12:00 PM 66 °F 48 °F 41% 30.18 in - SSW 12.7 mph - -  
12:00 PM 66.2 °F 48.2 °F 52% 30.15 in 6.2 mi SSW 12.7 mph - N/A   Unknown
12:30 PM 66.2 °F 46.4 °F 49% 30.15 in 6.2 mi South 17.3 mph - N/A   Unknown
1:00 PM 66.2 °F 46.4 °F 49% 30.15 in 6.2 mi SSW 15.0 mph - N/A   Unknown
1:30 PM 66.2 °F 46.4 °F 49% 30.15 in 6.2 mi South 15.0 mph - N/A   Unknown
2:00 PM 66.2 °F 46.4 °F 49% 30.15 in 6.2 mi South 17.3 mph - N/A   Unknown
2:30 PM 66.2 °F 48.2 °F 52% 30.15 in 6.2 mi South 17.3 mph - N/A   Unknown
3:00 PM 66 °F 47 °F 39% 30.15 in - South 16.1 mph - -  
3:00 PM 66.2 °F 46.4 °F 49% 30.12 in 6.2 mi South 16.1 mph - N/A   Unknown
3:30 PM 66.2 °F 46.4 °F 49% 30.12 in 6.2 mi South 17.3 mph - N/A   Scattered Clouds
4:00 PM 64.4 °F 46.4 °F 52% 30.15 in 6.2 mi South 13.8 mph - N/A   Unknown
4:30 PM 64.4 °F 46.4 °F 52% 30.15 in 6.2 mi SSW 9.2 mph - N/A   Unknown
5:00 PM 62.6 °F 48.2 °F 59% 30.15 in 6.2 mi South 8.1 mph - N/A   Unknown
5:30 PM 60.8 °F 48.2 °F 63% 30.18 in 6.2 mi SSW 6.9 mph - N/A   Scattered Clouds
6:00 PM 60 °F 48 °F 55% 30.19 in - South 4.6 mph - -  
6:00 PM 59.0 °F 48.2 °F 67% 30.18 in 6.2 mi South 4.6 mph - N/A   Mostly Cloudy
6:30 PM 59.0 °F 48.2 °F 67% 30.18 in 6.2 mi South 5.8 mph - N/A   Overcast
7:00 PM 59.0 °F 48.2 °F 67% 30.21 in 6.2 mi South 5.8 mph - N/A   Overcast
7:30 PM 60.8 °F 48.2 °F 63% 30.21 in 6.2 mi South 8.1 mph - N/A   Overcast
8:00 PM 60.8 °F 48.2 °F 63% 30.21 in 6.2 mi SSW 5.8 mph - N/A   Overcast
8:30 PM 60.8 °F 48.2 °F 63% 30.21 in 6.2 mi South 8.1 mph - N/A   Overcast
9:00 PM 62 °F 47 °F 46% 30.25 in - South 10.4 mph - -   Overcast
9:00 PM 62.6 °F 46.4 °F 55% 30.24 in 6.2 mi South 10.4 mph - N/A   Overcast
9:30 PM 62.6 °F 46.4 °F 55% 30.24 in 6.2 mi South 16.1 mph - N/A   Overcast
10:00 PM 60.8 °F 46.4 °F 59% 30.24 in 6.2 mi SSW 10.4 mph - N/A   Mostly Cloudy
10:30 PM 60.8 °F 46.4 °F 59% 30.24 in 6.2 mi SSW 13.8 mph - N/A   Overcast
11:00 PM 60.8 °F 46.4 °F 59% 30.24 in 6.2 mi SSW 11.5 mph - N/A   Overcast
11:30 PM 60.8 °F 46.4 °F 59% 30.24 in 6.2 mi SSW 12.7 mph - N/A   Overcast